COSMOS 1751

Satellite information

Favourite Embed

Satellite Type and Status

PAYLOADIN ORBIT

Key statistics

Satellite COSMOS 1751 at a glance.

Uptime

14220

Days in orbit

Revolutions

≈ 12.4

Per day

Orbit

LEO

Low Earth Orbit

Inclination

74.0

Latest

Satellite identification and parameters

Extended collection of information and parameters for COSMOS 1751.

Object identification

Identified? True

Debris? False

Object name: COSMOS 1751

International designator: 1986-042D

Object number (NORAD): 16761

Object ID (CCSDS): 16761

Country: COMMONWEALTH OF INDEPENDENT STATES (CIS)

Current information (Y/N): Y

RCS size: MEDIUM

Orbital parameters

Period: 115.673 minutes

Inclination: 74.0178 deg

SMA: 7864.095 km

Apoapsis: 1504.97 km

Periapsis: 1466.949 km

RAAN: 315.4712 deg

Eccentricy: 0.0024174

Argument of periapsis: 338.0356 deg

Mean anomaly: 34.4059 deg

Mean motion: 12.44886245 rev/day

Mean motion (dot): -0.00000004 rev/day2

B* drag term: 0.00008292 1/REarth

Two-line elements (TLE)

Creation date: May 12, 2025, 2:31 a.m.

Reference frame: TEME

Reference center: EARTH

Epoch: May 11, 2025, 7:42 p.m. UTC

TLE line 0: 0 COSMOS 1751

TLE line 1: 1 16761U 86042D 25131.82092156 -.00000004 00000-0 82920-4 0 9996

TLE line 2: 2 16761 74.0178 315.4712 0024174 338.0356 34.4059 12.44886245769213

Live tracking on map

Real-time ground track for satellite COSMOS 1751.

In-orbit conjunctions

There are no conjunctions computed for COSMOS 1751, at the moment. Check back to stay up to date, as we update our databases every day.

Go to all conjunctions

Associated space launch

Military communications satellites

COSMOS 1751 was lifted into orbit during the mission ‘Kosmos-3M | Strela-1M 305-312’, on board a Kosmos-3M space rocket.

The launch took place on June 6, 1986, 3:57 a.m. from 132/1 (132L).

For more information about the launch, click the button.

Launch to space Kosmos-3M | Strela-1M 305-312
Kosmos-3M | Strela-1M 305-312

Agency: N/A

Status: Launch Successful

Launch date: June 6, 1986, 3:57 a.m. UTC

Rocket: Kosmos-3M

Launch pad: 132/1 (132L)

Location: Plesetsk Cosmodrome, Russian Federation

...

Latest news about this satellite

There are no fresh news available about this satellite. Check back as we update our databases every day.


Newsletter sign-up

Weekly statistics, charts and insights to help you stay on top of the space industry.